Regional Weather Roundup
Issued by NWS

Home | Current Version | Previous Version | Graphics & Text | Print | Product List | Glossary On
Versions: 1 2 3 4 5 6 7 8 9 10 11 12 13 14 15 16 17 18 19 20 21 22 23 24 25 26 27 28 29 30 31 32 33 34 35 36 37 38 39 40 41 42 43 44 45 46 47 48 49 50
000
ASUS45 KABQ 021801
RWRNM
WEATHER ROUNDUP FOR NEW MEXICO
NATIONAL WEATHER SERVICE ALBUQUERQUE NM
1200 PM MDT TUE SEP 02 2014

NOTE: "FAIR" MEANS FEW OR NO CLOUDS BELOW 12,000 FEET AGL WITH NO
       SIGNIFICANT WEATHER OR OBSTRUCTIONS TO VISION.

      THIS PRODUCT IS RELEASED AS TWO VERSIONS.  ONE VERSION NEAR
      THE TOP OF THE HOUR CONTAINING PRELIMINARY DATA FROM ALBUQUERQUE
      AND OTHER STATIONS.  A FINAL VERSION WITH ADDITIONAL DATA IS
      ISSUED ABOUT 10 MINUTES AFTER THE HOUR.

NMZ501-503-504-510>518-021900-
NORTHWEST PLATEAU/NORTHCENTRAL MOUNTAINS

CITY           SKY/WX    TMP DP  RH WIND       PRES   REMARKS
FARMINGTON     SUNNY     82  35  18 S3        30.13F
6HR MIN TEMP:  54; 6HR MAX TEMP:  83;

LOS ALAMOS     SUNNY     78  31  17 E5        30.30S
SANTA FE       SUNNY     83  29  14 VRB3      30.21F
6HR MIN TEMP:  57; 6HR MAX TEMP:  83;

ANGEL FIRE     FAIR      73  20  13 W6        30.36F

$$
NMZ402-403-502-505>509-021900-
WESTCENTRAL MOUNTAINS/SOUTHWEST MOUNTAINS

CITY           SKY/WX    TMP DP  RH WIND       PRES   REMARKS
GALLUP         SUNNY     82  35  18 SW8       30.23F
6HR MIN TEMP:  49; 6HR MAX TEMP:  83;

SILVER CITY    SUNNY     88  32  13 NW12      30.16F

$$
NMZ407-409-411-412-021900-
SOUTHERN DESERTS

CITY           SKY/WX    TMP DP  RH WIND       PRES   REMARKS
LORDSBURG      FAIR      90  37  15 NW13G18   30.08F
DEMING         SUNNY     93  34  12 VRB5      30.05F
6HR MIN TEMP:  63; 6HR MAX TEMP:  94;

LAS CRUCES     SUNNY     90  33  13 NW6       30.07F
HOLLOMAN AFB   SUNNY     91  35  13 VRB1      30.02F
ALAMOGORDO     SUNNY     90  36  14 CALM      30.04F
T OR C         SUNNY     90  37  15 VRB6      30.09F
6HR MIN TEMP:  67; 6HR MAX TEMP:  90;


$$
NMZ519>523-021900-
CENTRAL VALLEYS/CENTRAL HIGHLANDS

CITY           SKY/WX    TMP DP  RH WIND       PRES   REMARKS
ALBUQUERQUE    MOSUNNY   84  38  19 VRB3      30.16F
6HR MIN TEMP:  60; 6HR MAX TEMP:  84;

DOUBLE EAGLE   MOSUNNY   82  36  18 VRB6      30.20F
CLINES CORNERS SUNNY     83  32  16 W7        30.26F
6HR MIN TEMP:  60; 6HR MAX TEMP:  83;

BELEN          FAIR      85  41  20 N5        30.14F
6HR MIN TEMP:  55; 6HR MAX TEMP:  85;

SOCORRO        FAIR      88  37  16 NE8       30.10F
6HR MIN TEMP:  60; 6HR MAX TEMP:  88;


$$
NMZ524>526-539-540-021900-
SOUTHCENTRAL MOUNTAINS

CITY           SKY/WX    TMP DP  RH WIND       PRES   REMARKS
RUIDOSO        NOT AVBL

$$
NMZ527>531-021900-
NORTHEAST HIGHLANDS/NORTHEAST PLAINS

CITY           SKY/WX    TMP DP  RH WIND       PRES   REMARKS
LAS VEGAS      SUNNY     82  33  17 E6        30.25F
6HR MIN TEMP:  48; 6HR MAX TEMP:  82;

RATON          SUNNY     80  36  20 S8        30.19F
6HR MIN TEMP:  51; 6HR MAX TEMP:  81;

CLAYTON        PTSUNNY   75  61  61 VRB7      30.15F
6HR MIN TEMP:  64; 6HR MAX TEMP:  75;


$$
NMZ532>537-021900-
EASTCENTRAL PLAINS

CITY           SKY/WX    TMP DP  RH WIND       PRES   REMARKS
TUCUMCARI      PTSUNNY   83  63  50 NE17      30.07S
6HR MIN TEMP:  64; 6HR MAX TEMP:  83;

CANNON AFB     SUNNY     85  60  43 NE14      30.07F
6HR MIN TEMP:  63; 6HR MAX TEMP:  85;

CLOVIS AIRPORT   N/A     86  61  42 N13G20    30.09S

$$
NMZ028-029-538-021900-
SOUTHEAST PLAINS

CITY           SKY/WX    TMP DP  RH WIND       PRES   REMARKS
ROSWELL        SUNNY     90  46  21 NE9       30.00F
6HR MIN TEMP:  63; 6HR MAX TEMP:  90;

CARLSBAD       SUNNY     95  50  21 MISG      29.96F
6HR MIN TEMP:  67; 6HR MAX TEMP:  95;

HOBBS          SUNNY     93  52  24 S5        30.00F


$$


USA.gov is the U.S. government's official web portal to all federal, state and local government web resources and services.